Regional Weather Roundup
Issued by NWS Upton, NY

Current Version | Previous Version | Graphics & Text | Print | Product List | Glossary Off
Versions: 1 2 3 4 5 6 7 8 9 10 11 12 13 14 15 16 17 18 19 20 21 22 23 24 25 26 27 28 29 30 31 32 33 34 35 36 37 38 39 40 41 42 43 44 45 46 47 48 49 50
000 ASUS41 KOKX 011005 RWROKX REGIONAL WEATHER ROUNDUP NATIONAL WEATHER SERVICE NEW YORK NY 500 AM EST SUN MAR 01 2015 NOTE: "FAIR" INDICATES FEW OR NO CLOUDS BELOW 12,000 FEET WITH NO SIGNIFICANT WEATHER AND/OR OBSTRUCTIONS TO VISIBILITY. NYZ071-072-176-178-NJZ106-104-011100- NEW YORK CITY METRO AREA CITY SKY/WX TMP DP RH WIND PRES REMARKS CENTRAL PARK PTCLDY 25 5 42 NW5 30.70R WCI 19 LAGUARDIA APRT PTCLDY 24 10 55 CALM 30.69R KENNEDY INTL MOCLDY 24 10 55 SW8 30.70S WCI 15 NEWARK/LIBERTY CLOUDY 20 5 52 CALM 30.70R BRNX BOT. GARD N/A N/A N/A N/A E1 30.69S TETERBORO PTCLDY 19 7 59 CALM 30.68S $$ NYZ177-179-078>081-011100- LONG ISLAND NEW YORK CITY SKY/WX TMP DP RH WIND PRES REMARKS FARMINGDALE CLEAR 15 9 76 N3 30.69R ISLIP CLEAR 15 7 70 CALM 30.68R SHIRLEY CLEAR 9 1 70 CALM 30.70R WESTHAMPTON CLEAR 2 -5 72 CALM 30.71R MONTAUK POINT N/A 14 9 80 CALM 30.71R $$ NYZ052-065-067-011100- HUDSON VALLEY CITY SKY/WX TMP DP RH WIND PRES REMARKS WHITE PLAINS FAIR 12 3 67 NW3 30.65R NEWBURGH NOT AVBL MONTGOMERY CLOUDY 6 -1 73 CALM 30.65R POUGHKEEPSIE CLOUDY 7 -1 70 CALM 30.69R ALBANY CLOUDY 4 -3 73 CALM 30.66F $$ NJZ001-105-106-008-010-013-015-019>022-104-011100- NEW JERSEY CITY SKY/WX TMP DP RH WIND PRES REMARKS NEWARK/LIBERTY CLOUDY 20 5 52 CALM 30.70R TETERBORO PTCLDY 19 7 59 CALM 30.68S CALDWELL PTCLDY 13 4 67 CALM 30.69S MORRISTOWN PTCLDY 12 7 79 CALM 30.69R SOMERVILLE CLOUDY 10 3 73 CALM 30.68R SUSSEX CLOUDY 7 0 73 CALM 30.64S ANDOVER N/A 9 4 80 CALM 30.65R TRENTON CLOUDY 17 6 62 NW3 30.68R MILLVILLE CLOUDY N/A N/A N/A CALM 30.68F ATLANTIC CITY MOCLDY 17 10 74 CALM 30.70S WRIGHTSTOWN MOCLDY 18 8 67 SW2 30.67R TOMS RIVER CLOUDY 12 7 79 CALM 30.70R BELMAR PTCLDY 18 7 62 SW3 30.68R $$ PAZ047>061-062-071-011100- EASTERN PENNSYLVANIA CITY SKY/WX TMP DP RH WIND PRES REMARKS PHILADELPHIA CLOUDY 24 14 65 W3 30.70F ALLENTOWN CLOUDY 14 5 67 CALM 30.66S SCRANTON CLOUDY 14 3 61 N3 30.59R $$ CTZ002-004>006-009-010-012-RIZ004-006-007-MAZ004-011-015-011100- SOUTHERN NEW ENGLAND IN CT CITY SKY/WX TMP DP RH WIND PRES REMARKS BRADLEY INTL MOCLDY 7 -3 64 CALM 30.67S HARTFORD MOCLDY 7 4 87 CALM 30.70S DANBURY PTCLDY 5 -3 69 CALM 30.67S WTRBRY/OXFORD MOCLDY 10 -4 52 CALM 30.62F BRIDGEPORT PTCLDY 14 7 73 CALM 30.69S MERIDEN MOCLDY 7 0 73 CALM 30.69S NEW HAVEN PTCLDY 9 4 80 CALM 30.68S CHESTER FAIR 19 0 42 CALM 30.66S GROTON CLEAR 8 4 83 NE5 30.70R WCI 0 WILLIMANTIC PTCLDY -1 -7 75 NE3 30.69S IN RI CITY SKY/WX TMP DP RH WIND PRES REMARKS PROVIDENCE PTCLDY 8 0 69 CALM 30.69R BLOCK ISLAND CLEAR 19 9 63 CALM 30.66S WESTERLY CLEAR 4 -1 80 CALM 30.70R IN MA CITY SKY/WX TMP DP RH WIND PRES REMARKS BOSTON PTCLDY 14 3 61 CALM 30.68S WORCESTER PTCLDY 15 -2 46 W9 30.59R WCI 3 WESTFIELD PTCLDY 2 -4 76 CALM 30.66F PROVINCETOWN CLEAR 9 5 85 CALM 30.67F NANTUCKET CLEAR 13 7 77 CALM 30.69S $$ ANZ330-335-338-340-345-350-353-355-011100- COASTAL MARINE OBSERVATIONS STATION/POSITION TIME SKY/WX TEMP WIND PRES VSBY WAVE AIR SEA DIR/SP/G HT/PER (UTC) (F) (DEG/KT/KT) (MB) (MI) (FT/S) NY HARB ENTRANCE 1000 28 37 240/ 6/ 8 1039.2 1/ 8 4S FIRE IS 0900 32 N/A 2/ 9 20S FIRE ISLAND 0900 37 1039.8 2/ 9 23SW MTP 1000 N/A 2/ 9 HUDSON CANYON NOT AVBL EXECUTION ROCKS NOT AVBL WESTERN LI SOUND NOT AVBL CENTRAL LI SOUND NOT AVBL EASTERN LI SOUND NOT AVBL ROBBINS REEF 1000 23 290/ 1/ 2 1038.0 $$ >>>>>>>>>>>>>>>>>>>>>>>>>>>> KEY <<<<<<<<<<<<<<<<<<<<<<<<<<< > < > SKY/WX - SKY CONDITION/PRESENT WEATHER < > TMP - TEMPERATURE IN FAHRENHEIT < > DP - DEWPOINT IN FAHRENHEIT < > RH - RELATIVE HUMIDITY IN PERCENT < > WIND - DIRECTION AND SPEED IN MPH < > PRES - MEAN SEA LEVEL PRESSURE IN INCHES OF HG < > WCI - WIND CHILL INDEX < > VSB - VISIBILITY IN MILES < > HX - HEAT INDEX < > TC - TEMPERATURE IN CELSIUS < > VRB - VARIABLE WIND DIRECTION < > < >>>>>>>>>>>>>>>>>>>>>>>>>>>> KEY <<<<<<<<<<<<<<<<<<<<<<<<<<<

USA.gov is the U.S. government's official web portal to all federal, state and local government web resources and services.